Starlink 35660

operational
NORAD ID: 67003 Int'l Des: 2025-293 Owner: SPXS Country: US Constellation: starlink
LEOCIRCULAR

About Starlink 35660

Description loading...

Live Position

Loading 3D Globe...

Upcoming Passes

Altitude History

Altitude vs Time

uPlot chart will show altitude changes over time

Two-Line Element Set

1 67003C 25293A 25346.10395833 -.00540380 00000+0 -77179-3 0 3460
2 67003 69.9976 325.9274 0004122 272.3461 194.4290 16.05817169 14
Epoch: Dec 12, 2025 • Age: 50 hours

Current Status

Altitude 272.6 km
Velocity 7.74 km/s
Sub-Earth Point -27.34°S, 160.73°W
Launch Date Dec 10, 2025
Age 3 days
Type internet

Technical Details

Classification Payload
Mass 575.00 kg
Dry Mass 530.00 kg
Total Mass 575.00 kg
Length 0.30 m
Diameter 4.10 m
Span 29.00 m
Shape Box + pan
Manufacturer SPXS
Bus Type Starlink V2MO
Phase Status In Orbit
Owner/State SPXS/US

Large Constellations

Loading constellations...